When you browse on this site, cookies collect data to enhance your experience and personalize the content and advertising you see.
Visit our Privacy Policy to learn more. By continuing to use the site, you agree to this use of cookies and data.
  • En España
  • Lista de países
  • Para 7 días
  • Temperatura del agua
  • Mapa Satelital
  • El tiempo en el mapa
  • Informadores
  • user-avatar
    Iniciar sesión

    Tiempo cada hora Lubango

    Hoy, 21 Marzo, Jueves

    Tiempo Temperatura Precipitaciones Viento Presión Humedad
    00:00 +18°C° 0 mm 1 mps 607 mmHg 70%
    01:00 +16°C° 0 mm 0 mps 607 mmHg 77%
    02:00 +16°C° 0.1 mm 0 mps 607 mmHg 77%
    03:00 +16°C° 0.1 mm 0 mps 607 mmHg 76%
    04:00 +18°C° 0.1 mm 1 mps 607 mmHg 75%
    05:00 +18°C° 0.4 mm 1 mps 607 mmHg 73%
    06:00 +19°C° 0.4 mm 1 mps 608 mmHg 72%
    07:00 +19°C° 0 mm 1 mps 608 mmHg 71%
    08:00 +21°C° 0.1 mm 1 mps 609 mmHg 65%
    09:00 +22°C° 0.1 mm 1 mps 609 mmHg 60%
    10:00 +24°C° 0.1 mm 2 mps 610 mmHg 55%
    11:00 +25°C° 0 mm 2 mps 610 mmHg 49%
    12:00 +27°C° 0 mm 2 mps 610 mmHg 44%
    13:00 +29°C° 0 mm 3 mps 610 mmHg 39%
    14:00 +27°C° 0.2 mm 2 mps 609 mmHg 43%
    15:00 +26°C° 0.2 mm 2 mps 608 mmHg 48%
    16:00 +24°C° 0.2 mm 1 mps 607 mmHg 53%
    17:00 +23°C° 0.2 mm 1 mps 607 mmHg 56%
    18:00 +22°C° 0.2 mm 1 mps 607 mmHg 59%
    19:00 +21°C° 0.2 mm 2 mps 607 mmHg 61%
    20:00 +21°C° 1.3 mm 1 mps 608 mmHg 68%
    21:00 +20°C° 1.3 mm 1 mps 608 mmHg 75%
    22:00 +19°C° 1.3 mm 1 mps 608 mmHg 81%
    23:00 +19°C° 0.6 mm 1 mps 608 mmHg 81%

    Mañana, 22 Marzo, Viernes

    Tiempo Temperatura Precipitaciones Viento Presión Humedad
    00:00 +19°C° 0.6 mm 1 mps 608 mmHg 80%
    01:00 +19°C° 0.6 mm 1 mps 608 mmHg 79%
    02:00 +18°C° 0.3 mm 1 mps 607 mmHg 81%
    03:00 +16°C° 0.3 mm 1 mps 607 mmHg 82%
    04:00 +16°C° 0.3 mm 2 mps 606 mmHg 83%
    05:00 +16°C° 0.3 mm 1 mps 607 mmHg 81%
    06:00 +18°C° 0.3 mm 1 mps 607 mmHg 80%
    07:00 +18°C° 0.3 mm 1 mps 607 mmHg 78%
    08:00 +22°C° 0 mm 1 mps 609 mmHg 66%
    09:00 +25°C° 0 mm 1 mps 610 mmHg 54%
    10:00 +28°C° 0 mm 2 mps 612 mmHg 41%
    11:00 +28°C° 0 mm 2 mps 611 mmHg 39%
    12:00 +29°C° 0 mm 3 mps 611 mmHg 37%
    13:00 +29°C° 0 mm 3 mps 610 mmHg 34%
    14:00 +28°C° 0 mm 3 mps 610 mmHg 38%
    15:00 +27°C° 0 mm 2 mps 609 mmHg 42%
    16:00 +26°C° 0 mm 1 mps 608 mmHg 46%
    17:00 +24°C° 0 mm 1 mps 608 mmHg 52%
    18:00 +23°C° 0 mm 1 mps 608 mmHg 58%
    19:00 +21°C° 0 mm 1 mps 608 mmHg 64%
    20:00 +20°C° 0.7 mm 1 mps 608 mmHg 69%
    21:00 +19°C° 0.7 mm 1 mps 608 mmHg 75%
    22:00 +18°C° 0.7 mm 1 mps 608 mmHg 80%
    23:00 +18°C° 0.4 mm 1 mps 608 mmHg 80%

    Pasado mañana, 23 Marzo, Sábado

    Tiempo Temperatura Precipitaciones Viento Presión Humedad
    00:00 +18°C° 0.4 mm 1 mps 608 mmHg 81%
    01:00 +18°C° 0.4 mm 1 mps 608 mmHg 81%
    02:00 +19°C° 0 mm 1 mps 608 mmHg 79%
    03:00 +19°C° 0 mm 1 mps 608 mmHg 77%
    04:00 +19°C° 0 mm 1 mps 608 mmHg 75%
    05:00 +19°C° 0.2 mm 1 mps 608 mmHg 76%
    06:00 +19°C° 0.2 mm 1 mps 608 mmHg 76%
    07:00 +19°C° 0.2 mm 1 mps 608 mmHg 77%
    08:00 +22°C° 0 mm 1 mps 609 mmHg 65%
    09:00 +25°C° 0 mm 2 mps 611 mmHg 54%
    10:00 +28°C° 0 mm 2 mps 612 mmHg 43%
    11:00 +28°C° 0 mm 2 mps 611 mmHg 43%
    12:00 +27°C° 0 mm 2 mps 611 mmHg 42%
    13:00 +27°C° 0 mm 2 mps 610 mmHg 42%
    14:00 +27°C° 0.1 mm 2 mps 609 mmHg 44%
    15:00 +27°C° 0.1 mm 1 mps 609 mmHg 46%
    16:00 +26°C° 0.1 mm 1 mps 608 mmHg 47%
    17:00 +24°C° 1.3 mm 1 mps 608 mmHg 57%
    18:00 +22°C° 1.3 mm 1 mps 608 mmHg 67%
    19:00 +20°C° 1.3 mm 1 mps 608 mmHg 77%
    20:00 +19°C° 0.9 mm 1 mps 608 mmHg 81%
    21:00 +19°C° 0.9 mm 1 mps 608 mmHg 86%
    22:00 +18°C° 0.9 mm 1 mps 609 mmHg 90%
    23:00 +18°C° 0.9 mm 1 mps 608 mmHg 89%

    24 Marzo, Domingo

    Tiempo Temperatura Precipitaciones Viento Presión Humedad
    00:00 +18°C° 0.9 mm 1 mps 608 mmHg 88%
    01:00 +16°C° 0.9 mm 0 mps 608 mmHg 87%
    02:00 +18°C° 0.3 mm 1 mps 608 mmHg 85%
    03:00 +18°C° 0.3 mm 1 mps 608 mmHg 82%
    04:00 +19°C° 0.3 mm 1 mps 607 mmHg 79%
    05:00 +19°C° 0 mm 1 mps 608 mmHg 78%
    06:00 +17°C° 0 mm 0 mps 608 mmHg 77%
    07:00 +17°C° 0 mm 0 mps 609 mmHg 75%
    08:00 +18°C° 0.2 mm 0 mps 609 mmHg 72%
    09:00 +20°C° 0.2 mm 0 mps 610 mmHg 68%
    10:00 +23°C° 0.2 mm 1 mps 610 mmHg 64%
    11:00 +23°C° 0.6 mm 1 mps 610 mmHg 62%
    12:00 +23°C° 0.6 mm 1 mps 609 mmHg 60%
    13:00 +24°C° 0.6 mm 1 mps 609 mmHg 58%
    14:00 +24°C° 0 mm 1 mps 609 mmHg 56%
    15:00 +25°C° 0 mm 1 mps 609 mmHg 53%
    16:00 +25°C° 0 mm 1 mps 609 mmHg 51%
    17:00 +23°C° 0.4 mm 1 mps 608 mmHg 60%
    18:00 +22°C° 0.4 mm 1 mps 608 mmHg 69%
    19:00 +20°C° 0.4 mm 1 mps 608 mmHg 79%
    20:00 +19°C° 0.3 mm 1 mps 608 mmHg 82%
    21:00 +18°C° 0.3 mm 1 mps 608 mmHg 85%
    22:00 +18°C° 0.3 mm 1 mps 608 mmHg 89%
    23:00 +18°C° 0.3 mm 1 mps 608 mmHg 89%

    25 Marzo, Lunes

    Tiempo Temperatura Precipitaciones Viento Presión Humedad
    00:00 +16°C° 0.3 mm 1 mps 608 mmHg 89%
    01:00 +16°C° 0.3 mm 1 mps 608 mmHg 90%
    02:00 +16°C° 0 mm 1 mps 607 mmHg 87%
    03:00 +16°C° 0 mm 1 mps 607 mmHg 85%
    04:00 +16°C° 0 mm 1 mps 607 mmHg 82%
    05:00 +16°C° 0 mm 1 mps 607 mmHg 79%
    06:00 +18°C° 0 mm 1 mps 607 mmHg 76%
    07:00 +18°C° 0 mm 1 mps 608 mmHg 73%
    08:00 +21°C° 0 mm 1 mps 609 mmHg 61%
    09:00 +24°C° 0 mm 1 mps 610 mmHg 49%
    10:00 +27°C° 0 mm 1 mps 612 mmHg 37%
    11:00 +28°C° 0 mm 1 mps 611 mmHg 36%
    12:00 +29°C° 0 mm 1 mps 611 mmHg 34%
    13:00 +29°C° 0 mm 1 mps 610 mmHg 33%
    14:00 +28°C° 0 mm 1 mps 609 mmHg 39%
    15:00 +26°C° 0 mm 1 mps 608 mmHg 46%
    16:00 +24°C° 0 mm 1 mps 607 mmHg 52%
    17:00 +23°C° 0 mm 1 mps 607 mmHg 57%
    18:00 +21°C° 0 mm 1 mps 607 mmHg 61%
    19:00 +20°C° 0 mm 1 mps 607 mmHg 66%
    20:00 +19°C° 0 mm 1 mps 607 mmHg 70%
    21:00 +19°C° 0 mm 1 mps 608 mmHg 74%
    22:00 +18°C° 0 mm 1 mps 608 mmHg 78%
    23:00 +18°C° 0.1 mm 1 mps 608 mmHg 78%

    26 Marzo, Martes

    Tiempo Temperatura Precipitaciones Viento Presión Humedad
    00:00 +18°C° 0.1 mm 1 mps 608 mmHg 79%
    01:00 +18°C° 0.1 mm 1 mps 607 mmHg 80%
    02:00 +18°C° 0 mm 1 mps 607 mmHg 79%
    03:00 +18°C° 0 mm 1 mps 607 mmHg 78%
    04:00 +18°C° 0 mm 1 mps 607 mmHg 76%
    05:00 +16°C° 0 mm 0 mps 607 mmHg 75%
    06:00 +16°C° 0 mm 0 mps 608 mmHg 73%
    07:00 +17°C° 0 mm 0 mps 608 mmHg 71%
    08:00 +21°C° 0 mm 1 mps 609 mmHg 62%
    09:00 +24°C° 0 mm 1 mps 610 mmHg 52%
    10:00 +26°C° 0 mm 1 mps 612 mmHg 42%
    11:00 +27°C° 0 mm 1 mps 611 mmHg 41%
    12:00 +28°C° 0 mm 1 mps 611 mmHg 39%
    13:00 +29°C° 0 mm 2 mps 610 mmHg 38%
    14:00 +26°C° 0.1 mm 2 mps 609 mmHg 44%
    15:00 +24°C° 0.1 mm 2 mps 608 mmHg 51%
    16:00 +21°C° 0.1 mm 2 mps 607 mmHg 57%
    17:00 +21°C° 0 mm 1 mps 607 mmHg 60%
    18:00 +20°C° 0 mm 1 mps 607 mmHg 63%
    19:00 +19°C° 0 mm 1 mps 607 mmHg 66%
    20:00 +19°C° 0.3 mm 1 mps 608 mmHg 70%
    21:00 +19°C° 0.3 mm 1 mps 608 mmHg 75%
    22:00 +18°C° 0.3 mm 1 mps 608 mmHg 79%
    23:00 +18°C° 0.8 mm 1 mps 608 mmHg 80%
    Mostrar más